Погода в Эле-Ваджх

Саудовская Аравия     26°13′48″N   36°28′03″E
темп.,
°C
ветер,
м/с
пор.,
м/с
влажн.,
%
обл.,
%
осадки,
мм/ч
давл.,
гПа
погр.,
м
10 августа, ср
ср1000:00+32сз57520 0.0 1001101
03:00+30сз711685 0.0 1000225
06:00+30сз811706 0.0 1001223
09:00+34сз66528 0.0 1002387
12:00+35зсз98485 0.0 1002493
15:00+35сз1112464 0.0 1000426
18:00+34сз912450 0.0 999390
21:00+32сз34493 0.0 100157
11 августа, чт
чт1100:00+32ю46474 0.0 1002101
03:00+30сз467217 0.0 1001146
06:00+30зсз33686 0.0 100244
09:00+33зсз32540 0.0 1003368
12:00+36зсз77440 0.0 1003527
15:00+35зсз910440 0.0 1001443
18:00+34сз810420 0.0 1001363
21:00+34ссз45405 0.0 100170
12 августа, пт
пт1200:00+32сз224839 0.0 100221
03:00+30сз466493 0.0 1001105
06:00+30сз45674 0.0 100283
09:00+34зсз33484 0.0 1003324
12:00+36зсз97455 0.0 1002495
15:00+36сз911413 0.0 1001435
18:00+35сз811390 0.0 1001375
21:00+34ссз233855 0.0 100321
13 августа, сб
сб1300:00+33юз454333 0.0 100349
03:00+30сз467331 0.0 1002131
06:00+29з227237 0.0 100324
09:00+32зсз54580 0.0 1003352
12:00+35зсз87470 0.0 1002509
15:00+35зсз1011440 0.0 1001455
18:00+33сз912450 0.0 1000355
21:00+32ссз33462 0.0 100230
14 августа, вс
вс1400:00+30юз226376 0.0 100217
03:00+29з227369 0.0 100229
06:00+29зсз577251 0.0 1002121
09:00+32зсз66584 0.0 1002421
12:00+35зсз76485 0.0 1003535
15:00+34зсз910475 0.0 1002445
18:00+33ссз68462 0.0 1002346
21:00+31зсз44520 0.0 100255